Location: Flitcham
(52.8000°N, 0.5667°E)
Time: 16:13:40
(UTC+00:00)

Cosmos 1634 Rocket - Pass Details

Date: 15 May 2026
Orbit: 960 x 990 km, 82.9° (Epoch: 10 June)

Event Time Altitude Azimuth Distance (km) Brightness Sun altitude
Exits shadow 22:22:34 22° 169° (S) 1,962 5.0 -15.5°
Maximum altitude 22:26:36 64° 94° (E) 1,063 4.1 -15.7°
Drops below altitude 10° 22:32:45 10° 15° (NNE) 2,725 7.2 -16.0°
Sets 22:35:17 0° 13° (NNE) 3,680 8.0 -16.1°
